TimeCST,TemperatureF,Dew PointF,Humidity,Sea Level PressureIn,VisibilityMPH,Wind Direction,Wind SpeedMPH,Gust SpeedMPH,PrecipitationIn,Events,Conditions,WindDirDegrees,DateUTC
12:15 AM,-2.2,-7.6,78,29.88,-9999.0,ESE,9.2,-,N/A,Snow,Heavy Snow,120,2012-12-12 06:15:00
12:35 AM,-2.2,-7.6,78,29.87,-9999.0,ESE,9.2,-,N/A,Snow,Heavy Snow,110,2012-12-12 06:35:00
12:55 AM,-2.2,-5.8,85,29.87,-9999.0,ESE,9.2,-,N/A,Snow,Heavy Snow,110,2012-12-12 06:55:00
1:15 AM,-2.2,-5.8,85,29.86,-9999.0,ESE,9.2,-,N/A,Snow,Heavy Snow,120,2012-12-12 07:15:00
1:35 AM,-0.4,-4.0,85,29.84,-9999.0,East,9.2,-,0.01,Snow,Heavy Snow,100,2012-12-12 07:35:00
1:55 AM,-0.4,-4.0,85,29.83,-9999.0,ESE,8.1,-,0.01,Snow,Heavy Snow,110,2012-12-12 07:55:00
2:15 AM,-0.4,-4.0,85,29.83,-9999.0,ESE,9.2,-,N/A,Snow,Heavy Snow,110,2012-12-12 08:15:00
2:35 AM,-0.4,-4.0,85,29.83,-9999.0,ESE,8.1,-,0.02,Snow,Heavy Snow,110,2012-12-12 08:35:00
2:55 AM,-0.4,-4.0,85,29.83,-9999.0,ESE,9.2,-,0.03,Snow,Heavy Snow,110,2012-12-12 08:55:00
3:15 AM,-0.4,-4.0,85,29.81,-9999.0,ESE,12.7,16.1,N/A,Snow,Heavy Snow,120,2012-12-12 09:15:00
3:35 AM,-0.4,-2.2,92,29.81,-9999.0,ESE,8.1,-,N/A,Snow,Heavy Snow,110,2012-12-12 09:35:00
3:55 AM,-0.4,-2.2,92,29.79,-9999.0,ESE,10.4,-,0.01,Snow,Heavy Snow,110,2012-12-12 09:55:00
4:15 AM,-0.4,-2.2,92,29.78,-9999.0,ESE,11.5,-,0.01,Snow,Heavy Snow,110,2012-12-12 10:15:00
4:35 AM,1.4,-0.4,92,29.78,-9999.0,East,9.2,-,0.02,Snow,Heavy Snow,100,2012-12-12 10:35:00
4:55 AM,1.4,-0.4,92,29.77,4.0,East,10.4,-,0.03,Snow,Light Snow,90,2012-12-12 10:55:00
5:15 AM,1.4,-0.4,92,29.77,3.0,East,10.4,-,N/A,Snow,Light Snow,100,2012-12-12 11:15:00
5:35 AM,1.4,-0.4,92,29.77,2.5,East,10.4,-,0.02,Snow,Light Snow,80,2012-12-12 11:35:00
5:55 AM,1.4,-0.4,92,29.78,4.0,ENE,6.9,-,0.03,Snow,Light Snow,70,2012-12-12 11:55:00
6:15 AM,1.4,-0.4,92,29.80,8.0,NNE,5.8,-,N/A,,Mostly Cloudy,30,2012-12-12 12:15:00
6:35 AM,1.4,-0.4,92,29.80,10.0,NE,5.8,-,N/A,,Mostly Cloudy,40,2012-12-12 12:35:00
6:55 AM,1.4,-0.4,92,29.79,10.0,NE,6.9,-,N/A,,Mostly Cloudy,50,2012-12-12 12:55:00
7:15 AM,1.4,-0.4,92,29.80,10.0,NE,6.9,-,N/A,,Overcast,40,2012-12-12 13:15:00
7:35 AM,1.4,-0.4,92,29.79,10.0,NE,8.1,-,N/A,,Overcast,40,2012-12-12 13:35:00
7:55 AM,1.4,-0.4,92,29.80,10.0,NNE,8.1,-,N/A,,Overcast,20,2012-12-12 13:55:00
8:15 AM,1.4,-0.4,92,29.80,10.0,NNE,8.1,-,N/A,,Mostly Cloudy,30,2012-12-12 14:15:00
8:35 AM,1.4,-0.4,92,29.80,10.0,NNE,10.4,-,N/A,,Scattered Clouds,20,2012-12-12 14:35:00
8:55 AM,1.4,-0.4,92,29.80,10.0,North,10.4,-,N/A,Snow,Light Snow,360,2012-12-12 14:55:00
9:15 AM,1.4,-0.4,92,29.81,10.0,North,11.5,-,N/A,Snow,Light Snow,360,2012-12-12 15:15:00
9:35 AM,1.4,-0.4,92,29.82,8.0,North,11.5,-,N/A,Snow,Light Snow,350,2012-12-12 15:35:00
9:55 AM,-0.4,-2.2,92,29.83,8.0,North,10.4,-,N/A,Snow,Light Snow,350,2012-12-12 15:55:00
10:15 AM,1.4,-2.2,85,29.82,6.0,North,11.5,-,N/A,Snow,Light Snow,350,2012-12-12 16:15:00
10:35 AM,1.4,-2.2,85,29.84,5.0,North,11.5,-,N/A,Snow,Light Snow,360,2012-12-12 16:35:00
10:55 AM,1.4,-2.2,85,29.84,6.0,North,10.4,-,N/A,Snow,Light Snow,350,2012-12-12 16:55:00
11:15 AM,1.4,-0.4,92,29.84,8.0,NNW,10.4,-,N/A,Snow,Light Snow,340,2012-12-12 17:15:00
11:35 AM,1.4,-2.2,85,29.84,7.0,NNW,8.1,-,N/A,Snow,Light Snow,340,2012-12-12 17:35:00
11:55 AM,1.4,-2.2,85,29.84,6.0,NNW,10.4,-,N/A,,Clear,340,2012-12-12 17:55:00
12:15 PM,1.4,-2.2,85,29.84,9.0,NNW,11.5,-,N/A,,Clear,330,2012-12-12 18:15:00
12:35 PM,1.4,-2.2,85,29.85,10.0,NNW,9.2,-,N/A,,Clear,330,2012-12-12 18:35:00
12:55 PM,1.4,-2.2,85,29.85,10.0,NNW,12.7,-,N/A,Snow,Light Snow,330,2012-12-12 18:55:00
1:15 PM,1.4,-2.2,85,29.86,8.0,NNW,13.8,-,N/A,Snow,Light Snow,340,2012-12-12 19:15:00
1:35 PM,1.4,-2.2,85,29.84,10.0,NNW,11.5,-,N/A,Snow,Light Snow,340,2012-12-12 19:35:00
1:55 PM,1.4,-2.2,85,29.85,10.0,NNW,12.7,-,N/A,,Clear,340,2012-12-12 19:55:00
2:15 PM,1.4,-2.2,85,29.85,10.0,NNW,11.5,-,N/A,,Mostly Cloudy,330,2012-12-12 20:15:00
2:35 PM,1.4,-2.2,85,29.87,10.0,NNW,11.5,-,N/A,,Overcast,340,2012-12-12 20:35:00
2:55 PM,1.4,-2.2,85,29.88,10.0,NNW,10.4,-,N/A,,Overcast,340,2012-12-12 20:55:00
3:15 PM,1.4,-2.2,85,29.88,10.0,NNW,12.7,-,N/A,,Overcast,340,2012-12-12 21:15:00
3:35 PM,1.4,-2.2,85,29.90,10.0,NNW,12.7,-,N/A,,Overcast,340,2012-12-12 21:35:00
3:55 PM,1.4,-2.2,85,29.90,10.0,NNW,12.7,-,N/A,,Overcast,340,2012-12-12 21:55:00
4:15 PM,1.4,-2.2,85,29.91,10.0,NNW,11.5,-,N/A,,Overcast,340,2012-12-12 22:15:00
4:35 PM,1.4,-2.2,85,29.92,10.0,North,11.5,-,N/A,,Overcast,350,2012-12-12 22:35:00
4:55 PM,1.4,-2.2,85,29.93,10.0,North,11.5,-,N/A,,Overcast,350,2012-12-12 22:55:00
5:15 PM,1.4,-2.2,85,29.92,10.0,NNW,11.5,-,N/A,,Overcast,340,2012-12-12 23:15:00
5:35 PM,1.4,-2.2,85,29.93,10.0,North,11.5,-,N/A,,Overcast,350,2012-12-12 23:35:00
5:55 PM,1.4,-2.2,85,29.94,10.0,NNW,10.4,-,N/A,,Overcast,340,2012-12-12 23:55:00
6:15 PM,1.4,-0.4,92,29.95,10.0,North,10.4,-,N/A,,Overcast,350,2012-12-13 00:15:00
6:35 PM,1.4,-0.4,92,29.96,10.0,North,10.4,-,N/A,,Overcast,350,2012-12-13 00:35:00
6:55 PM,1.4,-0.4,92,29.97,10.0,NNW,9.2,-,N/A,,Overcast,340,2012-12-13 00:55:00
7:15 PM,1.4,-0.4,92,29.98,10.0,NNW,10.4,-,N/A,,Overcast,340,2012-12-13 01:15:00
7:35 PM,1.4,-0.4,92,29.98,10.0,NNW,8.1,-,N/A,,Overcast,340,2012-12-13 01:35:00
7:55 PM,1.4,-0.4,92,29.98,10.0,North,11.5,-,N/A,,Overcast,350,2012-12-13 01:55:00
8:15 PM,1.4,-0.4,92,29.99,10.0,NNW,10.4,-,N/A,,Overcast,340,2012-12-13 02:15:00
8:35 PM,1.4,-0.4,92,30.00,10.0,NNW,9.2,-,N/A,,Overcast,330,2012-12-13 02:35:00
8:55 PM,1.4,-0.4,92,30.00,10.0,NNW,9.2,-,N/A,,Overcast,340,2012-12-13 02:55:00
9:15 PM,1.4,-0.4,92,30.00,10.0,NNW,9.2,-,N/A,,Overcast,340,2012-12-13 03:15:00
9:35 PM,1.4,-0.4,92,30.00,10.0,NNW,9.2,-,N/A,,Overcast,330,2012-12-13 03:35:00
9:55 PM,1.4,-0.4,92,30.01,10.0,NNW,11.5,-,N/A,,Overcast,340,2012-12-13 03:55:00
10:15 PM,1.4,-2.2,85,30.02,10.0,NNW,9.2,-,N/A,,Overcast,330,2012-12-13 04:15:00
10:35 PM,1.4,-2.2,85,30.02,10.0,NNW,6.9,-,N/A,,Overcast,330,2012-12-13 04:35:00
10:55 PM,1.4,-2.2,85,30.03,10.0,NNW,8.1,-,N/A,,Overcast,340,2012-12-13 04:55:00
11:15 PM,1.4,-2.2,85,30.03,10.0,NNW,9.2,-,N/A,,Overcast,330,2012-12-13 05:15:00
11:35 PM,1.4,-2.2,85,30.04,10.0,NNW,10.4,-,N/A,,Overcast,330,2012-12-13 05:35:00
11:55 PM,1.4,-2.2,85,30.04,10.0,NNW,6.9,-,N/A,,Overcast,330,2012-12-13 05:55:00